TimeEST,TemperatureF,Dew PointF,Humidity,Sea Level PressureIn,VisibilityMPH,Wind Direction,Wind SpeedMPH,Gust SpeedMPH,PrecipitationIn,Events,Conditions,WindDirDegrees,DateUTC
12:54 AM,33.1,24.1,70,29.99,10.0,SSW,4.6,-,N/A,,Partly Cloudy,210,2013-01-07 05:54:00
1:54 AM,32.0,24.1,73,30.00,10.0,SW,8.1,-,N/A,,Partly Cloudy,220,2013-01-07 06:54:00
2:54 AM,32.0,24.1,73,30.01,10.0,SSW,5.8,-,N/A,,Mostly Cloudy,210,2013-01-07 07:54:00
3:54 AM,30.9,24.1,76,30.02,10.0,WSW,5.8,-,N/A,,Clear,240,2013-01-07 08:54:00
4:54 AM,28.9,23.0,78,30.05,10.0,Calm,Calm,-,N/A,,Clear,0,2013-01-07 09:54:00
5:54 AM,28.9,23.0,78,30.08,10.0,Calm,Calm,-,N/A,,Scattered Clouds,0,2013-01-07 10:54:00
6:54 AM,34.0,26.1,73,30.12,10.0,NW,6.9,-,N/A,,Scattered Clouds,320,2013-01-07 11:54:00
7:54 AM,35.1,28.0,76,30.17,10.0,NW,3.5,-,N/A,,Partly Cloudy,320,2013-01-07 12:54:00
8:54 AM,37.0,24.1,59,30.21,10.0,NW,9.2,-,N/A,,Clear,320,2013-01-07 13:54:00
9:54 AM,37.0,21.9,54,30.26,10.0,NNW,13.8,24.2,N/A,,Clear,340,2013-01-07 14:54:00
10:54 AM,37.0,21.0,52,30.28,10.0,NNW,8.1,-,N/A,,Clear,340,2013-01-07 15:54:00
11:54 AM,36.0,17.1,46,30.30,10.0,NNW,9.2,-,N/A,,Clear,340,2013-01-07 16:54:00
12:54 PM,36.0,17.1,46,30.32,10.0,North,6.9,-,N/A,,Clear,360,2013-01-07 17:54:00
1:54 PM,35.6,17.6,48,30.33,10.0,WNW,5.8,-,N/A,,Clear,290,2013-01-07 18:54:00
2:54 PM,35.1,16.0,46,30.36,10.0,West,6.9,-,N/A,,Clear,280,2013-01-07 19:54:00
3:54 PM,35.1,12.9,40,30.38,10.0,NW,5.8,-,N/A,,Clear,320,2013-01-07 20:54:00
4:54 PM,32.0,10.9,42,30.39,10.0,Calm,Calm,-,N/A,,Clear,0,2013-01-07 21:54:00
5:54 PM,28.4,12.2,51,30.39,10.0,Calm,Calm,-,N/A,,Clear,0,2013-01-07 22:54:00
6:54 PM,27.0,12.0,53,30.41,10.0,Calm,Calm,-,N/A,,Clear,0,2013-01-07 23:54:00
7:54 PM,28.0,12.0,51,30.40,10.0,SSE,3.5,-,N/A,,Clear,150,2013-01-08 00:54:00
8:54 PM,24.1,12.9,62,30.40,10.0,Calm,Calm,-,N/A,,Clear,0,2013-01-08 01:54:00
9:54 PM,25.0,14.0,63,30.40,10.0,Calm,Calm,-,N/A,,Clear,0,2013-01-08 02:54:00
10:54 PM,21.9,15.1,75,30.39,10.0,Calm,Calm,-,N/A,,Clear,0,2013-01-08 03:54:00
11:54 PM,28.0,21.9,78,30.37,10.0,SSW,5.8,-,N/A,,Clear,200,2013-01-08 04:54:00